Wind_Speed
32 30 28 27 26 27 27 27 27 25 24 24 26 28 28 27 26 25 24 22 21 21 20 19 19 19 18 18 17 17 17 16 16 15 15 15 14 14 14 14 14 14 13 13
34 32 30 29 28 28 28 28 28 27 26 25 28 30 30 28 28 26 25 24 22 21 21 20 20 20 19 19 18 18 18 18 17 17 17 16 15 15 15 15 15 15 15 15
37 33 33 33 31 30 29 28 28 29 28 27 30 32 31 29 28 28 27 26 24 23 22 22 21 20 20 19 19 19 19 19 19 19 18 18 17 17 17 16 17 17 16 17
37 34 36 35 31 31 29 28 28 29 29 29 30 31 31 32 30 29 28 26 26 25 25 24 22 22 21 21 21 21 21 20 20 20 19 18 18 18 18 19 19 18 18 18
36 35 36 34 32 32 32 31 30 30 30 30 29 29 31 31 31 30 29 27 26 26 26 25 24 23 22 22 23 23 22 22 22 21 20 20 20 20 20 21 20 20 20 20
36 36 36 34 33 33 34 35 33 33 33 32 31 31 30 31 31 30 29 28 28 28 27 25 25 25 24 24 23 23 23 23 23 22 22 22 22 22 22 22 21 21 21 21
38 37 36 33 33 34 35 36 36 35 35 35 34 33 32 32 32 30 30 30 30 29 28 27 27 27 26 25 25 25 24 24 24 24 24 24 24 24 23 23 23 22 22 22
37 37 37 35 34 35 36 36 37 37 36 37 35 34 33 33 33 31 30 30 30 29 29 28 28 27 27 26 26 26 26 25 25 25 25 25 25 24 24 25 24 23 23 23
37 38 36 35 37 37 38 38 37 36 36 36 36 36 35 35 33 32 30 30 30 30 30 29 29 28 28 27 27 27 27 27 26 26 27 26 26 26 25 25 25 25 25 25
38 39 38 38 38 39 39 39 38 37 37 37 37 36 36 36 35 33 31 30 31 31 31 31 30 29 28 28 28 28 28 28 28 28 29 29 28 28 27 27 27 27 27 27
37 38 39 39 39 39 39 38 37 36 36 37 36 36 36 37 37 35 33 32 32 32 31 31 30 30 29 29 29 29 29 29 29 29 30 30 29 29 29 29 29 29 29 29
37 38 40 40 40 41 40 39 38 37 36 36 35 35 35 36 35 34 33 33 33 33 32 31 31 31 31 30 30 30 29 29 29 30 30 30 30 30 30 30 30 30 31 31
40 40 40 39 38 37 37 38 37 37 36 36 35 35 34 34 34 34 34 34 34 33 32 32 32 31 31 31 31 31 31 30 30 30 31 31 31 32 32 31 31 32 32 32
38 39 39 39 38 38 37 35 36 36 36 36 36 35 35 35 34 33 33 33 33 33 32 32 33 32 32 33 33 33 33 32 32 33 33 33 33 33 32 33 33 33 33 33
35 36 36 36 35 37 37 36 35 34 35 36 36 36 35 35 35 34 33 33 33 34 33 33 34 33 34 35 35 34 34 34 34 35 35 34 34 33 33 33 33 34 34 35
35 35 34 34 33 34 35 36 36 35 35 36 36 36 36 35 34 34 34 34 34 35 34 35 35 35 36 36 35 35 36 36 36 36 36 36 35 35 35 35 35 35 35 35
31 32 33 33 33 33 33 33 33 33 34 34 36 36 35 34 33 33 33 34 34 34 34 34 35 36 36 36 37 37 37 37 37 37 37 36 36 36 35 35 35 35 35 35
30 30 31 30 31 31 31 31 31 31 32 33 33 34 34 35 35 34 33 34 34 34 34 34 35 35 36 36 37 37 37 37 37 37 37 37 37 37 36 35 35 35 35 34
27 28 28 30 30 30 31 31 30 30 31 32 33 33 33 33 33 33 33 32 32 33 34 34 35 35 35 37 38 38 38 38 38 37 37 37 36 36 36 35 35 35 36 36
23 25 27 28 28 29 29 29 29 29 30 30 32 32 33 33 32 32 32 32 33 33 33 34 35 35 35 36 36 36 36 36 36 36 36 36 36 36 36 35 35 36 36 36
21 22 24 25 26 27 27 28 29 30 29 29 30 31 31 31 31 31 31 31 31 31 31 32 33 34 34 34 35 34 33 34 34 34 34 35 35 35 35 34 34 35 35 35
20 22 23 24 25 26 26 27 27 28 29 29 29 29 29 28 29 29 29 29 29 29 30 31 32 32 32 33 33 33 33 33 34 34 34 34 34 34 34 34 34 34 34 34
20 20 21 22 22 23 24 24 25 26 27 28 28 28 28 28 28 29 29 29 29 30 31 31 30 30 31 31 31 31 32 32 33 33 34 34 34 34 33 33 33 33 32 32
17 18 19 20 21 21 21 22 24 25 26 26 26 27 27 27 28 28 28 30 31 31 31 30 29 30 30 30 31 31 32 32 33 33 33 33 33 32 32 32 32 32 32 32
17 17 18 19 19 20 20 21 21 22 22 23 24 25 25 26 27 28 29 29 29 29 29 29 29 30 30 31 31 32 32 32 32 32 32 32 32 32 32 32 32 33 32 32
16 17 17 18 18 18 18 19 19 20 21 22 22 23 24 24 25 25 25 25 25 26 26 27 28 28 28 29 29 28 28 29 29 29 29 29 30 30 30 30 31 32 32 33
15 15 16 17 17 16 17 17 17 18 19 19 20 21 21 22 23 23 23 23 22 23 24 25 26 26 27 26 26 26 27 28 28 28 28 28 29 29 29 30 30 31 31 32
Wind_Direction
225 225 228 237 240 237 236 238 241 244 244 248 255 258 263 268 272 274 277 276 276 279 281 284 287 289 289 288 289 290 293 297 298 301 303 304 305 306 306 307 310 310 310 310
229 228 229 233 237 240 239 240 242 246 246 244 256 260 262 265 269 270 272 273 273 275 278 281 283 286 286 286 286 290 292 294 296 296 297 297 299 302 304 305 306 307 306 304
232 232 233 235 234 237 241 241 242 245 247 250 255 260 262 264 268 271 271 271 272 273 275 277 280 282 284 284 286 289 289 289 292 293 293 292 292 296 299 301 303 304 305 305
235 235 235 237 236 237 239 238 240 244 247 251 254 259 263 265 267 268 270 271 270 271 272 275 279 280 281 282 284 286 287 287 289 290 291 289 288 291 294 297 300 301 302 302
235 237 240 238 236 235 236 236 238 241 244 248 253 257 262 264 266 267 266 266 267 269 271 273 275 277 278 280 282 283 284 284 285 287 289 289 288 288 290 293 296 298 299 299
236 238 239 240 239 237 237 237 237 240 243 246 249 253 259 264 265 265 265 265 265 266 269 271 272 273 274 277 279 281 282 281 282 284 286 287 288 289 289 290 293 295 297 298
236 238 239 238 238 237 237 240 241 243 245 248 250 255 258 261 263 264 265 264 265 266 267 268 269 271 272 276 277 277 278 278 279 281 281 283 285 287 288 290 291 293 296 297
236 237 237 239 239 237 238 241 244 245 247 250 253 255 258 261 263 263 263 263 264 265 266 266 268 271 272 273 275 275 276 277 276 277 279 280 283 285 287 288 291 294 295 296
238 238 237 238 239 239 239 242 245 247 249 251 253 255 257 259 261 262 262 264 265 265 265 264 266 268 270 272 273 273 274 275 276 275 278 280 281 282 285 288 291 292 293 294
237 237 238 240 242 243 243 244 246 249 251 252 252 254 256 258 259 261 263 263 264 264 264 264 264 266 268 269 270 271 273 273 274 274 276 279 281 281 283 286 287 289 291 293
236 238 240 242 242 243 246 247 247 248 250 252 253 253 254 256 258 259 260 261 262 263 263 264 265 267 268 269 269 270 272 272 273 274 275 278 279 279 281 283 285 288 289 290
235 238 241 243 245 247 247 246 247 248 250 251 252 253 253 257 258 259 259 261 261 262 262 263 264 266 267 268 269 270 271 272 273 275 276 277 277 277 278 281 284 286 288 289
240 241 241 243 245 247 247 247 248 248 249 251 251 252 254 255 256 258 257 259 260 262 262 262 263 264 265 266 268 269 271 272 274 275 277 277 278 278 278 280 282 284 285 286
240 242 242 243 243 245 248 250 250 249 249 249 250 251 253 254 255 256 257 259 261 262 262 262 263 264 266 266 268 269 269 270 273 275 275 276 277 279 279 280 281 282 283 284
242 243 244 244 243 245 248 249 249 249 249 249 250 251 254 256 256 256 256 257 259 261 262 263 263 264 265 265 266 267 269 271 273 275 276 276 277 279 279 280 280 281 282 283
240 241 243 244 244 245 247 249 249 249 250 250 251 253 254 257 257 257 258 258 259 260 262 263 264 263 264 264 265 266 268 271 274 276 275 276 277 278 278 279 280 281 282 283
238 239 241 241 243 245 247 248 248 250 251 250 251 252 253 255 257 258 258 259 260 261 262 264 263 263 264 264 265 266 268 270 272 274 276 276 277 278 278 279 280 281 282 283
239 240 240 240 241 243 246 246 248 249 250 249 251 252 253 255 258 259 260 260 261 261 262 262 263 263 264 265 266 267 269 271 272 274 275 275 277 278 279 278 279 279 280 281
239 239 238 238 241 244 245 247 248 248 249 251 251 251 253 255 256 258 259 259 260 262 262 262 262 263 265 266 267 268 270 272 272 274 274 275 277 277 278 277 277 278 279 280
241 239 239 239 242 244 245 244 244 247 249 251 253 253 254 256 257 258 258 260 263 263 262 263 263 264 266 267 269 269 270 272 273 274 273 274 275 277 278 277 277 277 277 278
243 242 242 242 243 245 247 247 247 248 250 250 253 255 256 257 258 260 262 263 262 263 263 263 264 265 267 268 269 271 272 273 273 274 275 275 276 277 278 277 277 277 277 278
246 246 246 246 245 244 245 246 247 249 251 253 255 256 256 257 258 260 261 262 264 264 265 265 264 265 267 269 270 271 271 273 273 273 275 276 275 276 277 277 276 276 276 277
246 246 246 245 246 246 245 245 247 250 252 254 256 256 255 257 259 261 262 264 266 267 267 267 266 267 269 271 273 273 273 273 272 273 274 275 276 276 277 277 277 276 277 278
246 245 245 245 247 248 248 249 251 253 254 255 256 257 258 260 262 265 266 267 267 267 267 268 269 271 271 272 272 272 273 274 274 275 275 276 276 277 277 276 277 277 277 277
249 247 246 246 247 250 252 253 254 254 254 255 257 259 260 263 266 268 269 269 267 267 268 268 269 271 272 273 273 274 274 274 275 275 276 276 277 277 277 277 278 277 277 278
251 248 245 246 248 250 253 255 255 256 256 256 258 260 262 264 266 268 269 269 269 269 269 269 270 271 273 274 274 275 276 276 277 277 278 279 279 278 278 278 277 277 278 279
253 252 251 250 248 250 255 258 259 258 257 258 260 262 264 265 266 267 269 270 271 272 272 272 272 272 272 272 273 274 275 277 278 278 279 281 280 279 280 280 280 280 280 280
Height
5867 5872 5876 5878 5880 5884 5887 5891 5894 5897 5898 5899 5897 5897 5897 5897 5897 5898 5898 5898 5898 5898 5898 5897 5896 5896 5896 5896 5895 5895 5894 5894 5893 5892 5891 5891 5890 5889 5888 5886 5885 5884 5882 5881
5858 5863 5867 5871 5875 5877 5880 5884 5887 5889 5891 5892 5891 5890 5890 5891 5891 5892 5892 5892 5893 5893 5893 5892 5892 5892 5892 5891 5891 5890 5890 5890 5889 5889 5888 5887 5886 5885 5884 5883 5882 5881 5879 5878
5850 5855 5858 5862 5867 5870 5873 5876 5880 5882 5884 5885 5884 5882 5883 5884 5884 5885 5886 5886 5887 5887 5887 5887 5887 5887 5885 5884 5885 5886 5886 5885 5885 5884 5883 5883 5882 5882 5881 5880 5879 5877 5876 5874
5842 5847 5849 5857 5861 5864 5866 5869 5872 5873 5875 5876 5877 5876 5876 5877 5878 5879 5879 5879 5880 5881 5881 5881 5882 5881 5881 5881 5880 5880 5881 5880 5880 5879 5879 5878 5878 5877 5877 5876 5874 5873 5872 5870
5833 5837 5841 5848 5851 5855 5857 5860 5863 5865 5867 5868 5869 5869 5869 5870 5871 5871 5872 5873 5873 5874 5874 5875 5876 5876 5875 5875 5875 5875 5875 5875 5875 5874 5874 5873 5873 5872 5872 5871 5870 5868 5867 5865
5825 5829 5833 5840 5843 5845 5849 5851 5853 5855 5858 5860 5861 5862 5863 5863 5863 5864 5865 5866 5866 5867 5868 5869 5869 5870 5869 5869 5869 5869 5869 5869 5869 5869 5869 5868 5868 5867 5866 5865 5864 5863 5862 5861
5815 5819 5824 5830 5832 5836 5841 5842 5844 5846 5849 5851 5853 5855 5856 5855 5855 5857 5858 5859 5859 5860 5861 5862 5862 5862 5863 5863 5863 5863 5863 5863 5863 5863 5863 5862 5862 5861 5861 5860 5859 5858 5856 5855
5807 5811 5817 5820 5823 5826 5828 5831 5834 5837 5839 5841 5844 5845 5846 5847 5847 5849 5850 5850 5851 5852 5853 5854 5855 5855 5856 5856 5857 5857 5857 5857 5857 5857 5857 5856 5856 5855 5855 5854 5853 5852 5851 5849
5799 5804 5807 5811 5813 5815 5818 5822 5825 5827 5830 5832 5834 5836 5838 5838 5839 5841 5842 5843 5843 5844 5845 5846 5847 5848 5848 5849 5850 5850 5850 5850 5850 5851 5850 5850 5849 5849 5848 5847 5846 5846 5844 5843
5789 5793 5797 5800 5803 5806 5809 5812 5816 5818 5820 5822 5824 5827 5828 5830 5831 5833 5834 5835 5836 5837 5837 5838 5840 5840 5841 5841 5842 5842 5843 5843 5843 5843 5843 5843 5842 5841 5841 5841 5840 5839 5838 5836
5780 5784 5787 5791 5793 5796 5800 5803 5806 5808 5810 5812 5814 5817 5819 5820 5822 5824 5825 5827 5828 5829 5830 5831 5832 5833 5833 5834 5834 5835 5835 5835 5835 5835 5835 5835 5834 5834 5834 5833 5833 5832 5831 5829
5770 5773 5777 5780 5784 5787 5790 5793 5796 5799 5801 5803 5805 5808 5809 5811 5812 5814 5816 5817 5819 5820 5821 5822 5823 5825 5826 5826 5827 5827 5827 5827 5827 5827 5827 5827 5826 5826 5825 5825 5824 5823 5822 5821
5760 5763 5767 5771 5775 5777 5779 5782 5785 5789 5792 5794 5796 5798 5800 5801 5802 5804 5806 5808 5810 5811 5813 5814 5815 5816 5817 5818 5818 5819 5819 5819 5819 5818 5818 5818 5818 5817 5817 5817 5816 5815 5814 5812
5751 5754 5757 5761 5765 5768 5771 5774 5776 5779 5782 5784 5787 5789 5791 5792 5793 5795 5797 5800 5801 5802 5804 5805 5806 5808 5809 5809 5810 5810 5810 5810 5810 5810 5809 5809 5808 5808 5808 5807 5807 5806 5805 5803
5741 5744 5748 5752 5756 5759 5762 5765 5767 5770 5772 5775 5777 5779 5782 5783 5784 5786 5789 5790 5792 5793 5794 5796 5797 5798 5798 5799 5800 5800 5801 5801 5800 5800 5800 5799 5799 5799 5798 5798 5797 5796 5796 5794
5734 5738 5740 5743 5747 5751 5753 5755 5758 5761 5763 5766 5768 5771 5773 5774 5775 5777 5779 5781 5782 5784 5785 5786 5787 5788 5789 5789 5790 5790 5791 5791 5791 5790 5790 5790 5790 5789 5789 5788 5787 5786 5786 5785
5726 5729 5732 5735 5739 5741 5744 5746 5749 5752 5754 5756 5759 5761 5763 5765 5766 5768 5770 5771 5772 5774 5775 5777 5777 5778 5779 5779 5779 5780 5781 5781 5780 5780 5780 5780 5779 5779 5778 5778 5777 5776 5776 5775
5718 5721 5724 5727 5730 5732 5735 5738 5741 5743 5745 5747 5749 5752 5754 5756 5757 5758 5760 5762 5763 5764 5765 5766 5767 5768 5768 5769 5769 5769 5769 5770 5770 5770 5770 5769 5769 5768 5768 5767 5767 5766 5765 5764
5711 5713 5716 5719 5722 5725 5728 5730 5733 5735 5737 5738 5740 5743 5745 5747 5748 5749 5751 5752 5753 5754 5756 5756 5757 5757 5758 5759 5759 5759 5759 5759 5759 5759 5758 5758 5758 5757 5757 5756 5756 5755 5755 5754
5705 5708 5710 5713 5715 5717 5720 5722 5725 5727 5728 5730 5732 5734 5736 5738 5739 5740 5742 5743 5744 5745 5746 5746 5746 5747 5748 5748 5747 5747 5748 5748 5748 5748 5748 5748 5747 5746 5746 5745 5744 5744 5743 5742
5700 5702 5704 5707 5709 5711 5713 5715 5717 5719 5721 5722 5724 5726 5727 5729 5730 5731 5732 5734 5734 5734 5735 5735 5736 5737 5738 5738 5737 5737 5738 5738 5737 5737 5737 5737 5737 5736 5735 5734 5734 5733 5732 5731
5695 5696 5698 5700 5702 5704 5706 5708 5710 5712 5713 5715 5717 5718 5719 5720 5722 5723 5724 5725 5725 5725 5725 5726 5727 5727 5728 5727 5727 5727 5727 5727 5727 5727 5727 5726 5726 5725 5724 5724 5723 5722 5721 5721
5690 5691 5693 5694 5696 5698 5700 5702 5703 5705 5706 5708 5709 5710 5711 5712 5713 5714 5715 5716 5716 5716 5716 5717 5717 5718 5718 5717 5717 5717 5717 5717 5717 5717 5717 5716 5716 5715 5714 5713 5713 5712 5711 5711
5685 5686 5688 5690 5691 5693 5694 5695 5697 5698 5699 5701 5702 5703 5704 5704 5705 5705 5706 5707 5707 5707 5707 5708 5709 5709 5709 5708 5708 5708 5707 5707 5707 5706 5706 5706 5705 5705 5704 5703 5703 5702 5701 5701
5681 5682 5684 5685 5686 5687 5688 5689 5690 5691 5692 5693 5695 5696 5696 5697 5697 5698 5698 5698 5698 5699 5699 5699 5700 5700 5700 5699 5699 5698 5698 5697 5697 5696 5696 5696 5695 5694 5694 5693 5693 5692 5691 5690
5676 5678 5679 5680 5681 5682 5683 5684 5684 5685 5686 5687 5688 5689 5689 5690 5690 5690 5690 5690 5690 5690 5690 5691 5691 5691 5691 5690 5690 5689 5689 5688 5688 5687 5687 5686 5685 5685 5684 5683 5683 5682 5681 5680
5672 5673 5674 5675 5676 5677 5678 5678 5679 5679 5680 5681 5681 5682 5682 5683 5683 5683 5682 5682 5682 5682 5682 5682 5682 5682 5682 5682 5681 5681 5681 5680 5679 5679 5678 5677 5677 5676 5675 5674 5673 5672 5671 5670